Regional Weather Roundup
Issued by NWS

Home | Current Version | Previous Version | Text Only | Print | Product List | Glossary Off
Versions: 1 2 3 4 5 6 7 8 9 10 11 12 13 14 15 16 17 18 19 20 21 22 23 24 25 26 27 28 29 30 31 32 33 34 35 36 37 38 39 40 41 42 43 44 45 46 47 48 49

000
ASUS45 KBOU 211907
RWRCO

WEATHER ROUNDUP FOR COLORADO
NATIONAL WEATHER SERVICE DENVER/BOULDER CO
100 PM MDT MON JUL 21 2014

NOTE: "FAIR" INDICATES FEW OR NO CLOUDS BELOW 12000 FEET WITH NO
SIGNIFICANT WEATHER AND/OR OBSTRUCTIONS TO VISIBILITY.

COZ001>005-013-030-031-212000-
...NORTHWEST COLORADO...

CITY           SKY/WX    TMP DP  RH WIND       PRES   REMARKS
CRAIG          MOSUNNY   88  38  17 SW12G20   30.23F
HAYDEN         SUNNY     84  39  20 W12G18    30.27S
MEEKER         MOSUNNY   89  31  12 W26G33    30.25S
MOUNT WERNER   NOT AVBL
STEAMBOAT SPGS SUNNY     83  41  23 CALM      30.29F
WALDEN         MOSUNNY   77  34  20 SW18G24   30.40S
$$

COZ006>008-011-212000-
...WEST CENTRAL VALLEYS...

CITY           SKY/WX    TMP DP  RH WIND       PRES   REMARKS
GRAND JUNCTION MOSUNNY   90  39  16 NW5       30.16F
MONTROSE       MOSUNNY   88  36  15 MISG      30.25F
EAGLE          MOSUNNY   82  43  24 W6        30.31F
RIFLE          MOSUNNY   87  39  18 NW8       30.21F
DELTA          MOSUNNY   93  33  11 CALM      30.20F
NUCLA          NOT AVBL
$$

COZ017>023-064>068-212000-
...SOUTHWEST COLORADO...

CITY           SKY/WX    TMP DP  RH WIND       PRES   REMARKS
DURANGO        PTSUNNY   83  34  17 W6        30.33F
CORTEZ         SUNNY     87  32  14 VRB5      30.29S
PAGOSA SPRINGS PTSUNNY   80  35  19 SW3       30.41F
TELLURIDE      NOT AVBL
WOLF CREEK PAS NOT AVBL
$$

COZ009-010-012-014-032>034-037-058>063-212000-
...CENTRAL COLORADO...

CITY           SKY/WX    TMP DP  RH WIND       PRES   REMARKS
ASPEN          MOSUNNY   80  36  20 NW8       30.39S
BUENA VISTA    PTSUNNY   76  34  21 CALM      30.40F
COPPER MTN     PTSUNNY   64  27  24 W12G33    30.76R
BERTHOUD PASS  FAIR      55  41  58 W25G36    30.78S
COTTONWOOD PAS PTSUNNY   73  28  19 CALM      30.57F
GUNNISON       MOSUNNY   79  43  27 SW8       30.42F
KREMMLING      MOSUNNY   82  34  17 SW14      30.36F
LEADVILLE      PTSUNNY   71  34  25 NW8       30.55F
MONARCH PASS   MOSUNNY   59  30  33 W23G30    30.85S
SALIDA         PTSUNNY   79  42  27 NW6       30.44S
SUNLIGHT       MOSUNNY   72  37  28 CALM      30.66S
WILKERSON PASS NOT AVBL
$$

COZ069>075-212000-
...SAN LUIS VALLEY/SANGRE DE CRISTO MOUNTAINS...

CITY           SKY/WX    TMP DP  RH WIND       PRES   REMARKS
ALAMOSA        MOSUNNY   78  47  33 VRB5      30.39F
LA VETA PASS   PTSUNNY   73  43  33 SW8       30.60F
SAGUACHE       MOSUNNY   77  45  31 S8        30.41F
$$

COZ035-036-038>040-212000-
...NORTHERN COLORADO FRONT RANGE...

CITY           SKY/WX    TMP DP  RH WIND       PRES   REMARKS
DENVER INTL AP CLOUDY    92  36  14 W9        30.16S
DMNS CITY PARK   N/A     91  39  16 SE2       30.14F
AURORA         PTSUNNY   88  42  19 W5        30.19F
FRONT RANGE AP PTSUNNY   93  36  13 W12       30.18
ERIE MUNI ARPT CLOUDY    92  35  13 N6        30.13S
BOULDER MUN AP CLOUDY    91  39  16 NE7       30.14S
CENTENNIAL     CLOUDY    88  34  14 CALM      30.20F
BROOMFIELD     PTSUNNY   93  41  16 SE9       30.18F
FORT COLLINS   PTSUNNY   93  43  17 S10       30.10S
LONGMONT       PTSUNNY   95  38  13 N5        30.13F
$$

COZ041-046-047-076>085-087-088-212000-
...PIKES PEAK/PALMER DIVIDE AND SOUTHERN FOOTHILLS...

CITY           SKY/WX    TMP DP  RH WIND       PRES   REMARKS
COLO. SPRINGS  CLOUDY    86  47  25 S7        30.26S
A. F. ACADEMY  MOSUNNY   85  43  22 SW7       30.27S
ELLICOTT         N/A     85  46  25 SW7       30.24S
FALCON         CLOUDY    84  38  19 SW5       30.32S
FORT CARSON    CLOUDY    85  48  27 SW2       30.23S
LIMON          CLOUDY    94  37  13 VRB5      30.16F
MONUMENT HILL  CLOUDY    81  36  19 W7        30.32R
TRINIDAD       PTSUNNY   91  44  19 NE7       30.20F
$$

COZ042>045-048>051-090-091-212000-
...NORTHEAST COLORADO...

CITY           SKY/WX    TMP DP  RH WIND       PRES   REMARKS
GREELEY ARPT   PTSUNNY   93  52  24 CALM      30.10F
AKRON          PTSUNNY   96  42  15 VRB7G20   30.10F
BURLINGTON     PTSUNNY   94  54  25 NE5       30.07S
WRAY             N/A     96  48  19 S3        30.03S
STERLING       PTSUNNY   95  59  30 S9        30.03F
HOLYOKE        PTSUNNY  102  48  16 E5        30.02S
FORT MORGAN    PTSUNNY   92  43  17 CALM      30.10S
$$

COZ086-089-092>099-212000-
...SOUTHEAST COLORADO...

CITY           SKY/WX    TMP DP  RH WIND       PRES   REMARKS
PUEBLO         CLOUDY    92  41  17 NW12      30.12F
LA JUNTA       MOSUNNY   91  56  30 W10       30.08S
LAMAR          MOSUNNY   98  50  19 W8        30.01F
SPRINGFIELD      N/A     94  55  26 VRB5      30.08F
$$



USA.gov is the U.S. government's official web portal to all federal, state and local government web resources and services.